User: anonymous
Location: Caltech
(34.1382°N, 118.1253°W)
Time: 07:32:41
(UTC-07:00)
Language:

Sapphire - Orbit

View from above orbital plane
View from above orbital plane
View from above satellite
View from above satellite

Ground track
Ground track

The orbit data is extracted from the following two-line orbital elements,

1 26932U 01043D   14108.22533196  .00000044  00000-0  48967-4 0  5908
2 26932 067.0566 193.9726 0004547 262.1030 127.3209 14.29991060655084
Epoch (UTC): 18 April 2014 05:24:28
Eccentricity: 0.0004547
inclination: 67.0566°
perigee height: 788 km
apogee height: 795 km
right ascension of ascending node: 193.9726°
argument of perigee: 262.1030°
revolutions per day: 14.29991060
mean anomaly at epoch: 127.3209°
orbit number at epoch: 65508

The dashed part of the orbit path shows where the satellite is in the earth's shadow,  

DLR